Brunswick, GA

3:47 PM EDT on May 26, 2017 (GMT -0400)
Glynco Jetport

Weather History for KBQK - January, 2015

Change the Weather History Date:

Monday, January 26, 2015

  Actual Average Record
Temperature  
Mean Temperature 52 °F -  
Max Temperature 59 °F 63 °F 81 °F (1950)
Min Temperature 42 °F 40 °F 23 °F (1940)
Degree Days  
Heating Degree Days 14    
Growing Degree Days 2 (Base 50)    
Moisture  
Dew Point 40 °F    
Average Humidity 64    
Maximum Humidity 87    
Minimum Humidity 44    
Precipitation  
Precipitation 0.00 in - - ()
Sea Level Pressure  
Sea Level Pressure 29.82 in    
Wind  
Wind Speed 12 mph (West)    
Max Wind Speed 23 mph    
Max Gust Speed 34 mph    
Visibility 10 miles    
Events      
Averages and records for this station are not official NWS values.
T = Trace of Precipitation, MM = Missing Value Source: NWS Daily Summary

Daily Weather History Graph

Daily Weather History Graph

Search for Another Location

Airport or City:

Trip Planner

Search our weather history database for the weather conditions in past years. The results will help you decide how hot, cold, wet, or windy it might be!

Date:

Astronomy

Jan. 26, 2015 Rise Set
Actual Time 7:21 AM EST 5:55 PM EST
Civil Twilight 6:55 AM EST 6:21 PM EST
Nautical Twilight 6:26 AM EST 6:50 PM EST
Astronomical Twilight 5:57 AM EST 7:19 PM EST
Moon 11:32 AM EST No Moon Set
Length of Visible Light 11h 25m
Length of Day
10h 33m
Waxing Crescent, 45% of the Moon is Illuminated
Jan 26
Waxing Crescent
Jan 26
First Quarter
Feb 3
Full
Feb 11
Last Quarter
Feb 18
New

Hourly Weather History & Observations

Time (EST) Temp. Windchill Dew Point Humidity Pressure Visibility Wind Dir Wind Speed Gust Speed Precip Events Conditions
12:15 AM 53.6 °F - 44.6 °F 72% 29.86 in 10.0 mi SSW 11.5 mph - N/A   Scattered Clouds
12:35 AM 53.6 °F - 44.6 °F 72% 29.85 in 10.0 mi SSW 15.0 mph 20.7 mph N/A   Scattered Clouds
12:55 AM 53.6 °F - 44.6 °F 72% 29.85 in 10.0 mi SSW 11.5 mph - N/A   Scattered Clouds
1:15 AM 53.6 °F - 44.6 °F 72% 29.84 in 10.0 mi SSW 10.4 mph - N/A   Mostly Cloudy
1:35 AM 53.6 °F - 44.6 °F 72% 29.84 in 10.0 mi SW 9.2 mph - N/A   Scattered Clouds
1:55 AM 53.6 °F - 44.6 °F 72% 29.82 in 10.0 mi SSW 9.2 mph - N/A   Scattered Clouds
2:15 AM 53.6 °F - 46.4 °F 77% 29.81 in 10.0 mi SSW 10.4 mph - N/A   Clear
2:35 AM 53.6 °F - 46.4 °F 77% 29.80 in 10.0 mi SW 9.2 mph - N/A   Clear
2:55 AM 51.8 °F - 46.4 °F 82% 29.80 in 10.0 mi SSW 8.1 mph - N/A   Clear
3:15 AM 53.6 °F - 46.4 °F 77% 29.80 in 10.0 mi SSW 11.5 mph 16.1 mph N/A   Scattered Clouds
3:35 AM 53.6 °F - 46.4 °F 77% 29.80 in 10.0 mi SW 9.2 mph - N/A   Mostly Cloudy
3:55 AM 53.6 °F - 46.4 °F 77% 29.76 in 10.0 mi SW 5.8 mph - N/A   Mostly Cloudy
4:15 AM 53.6 °F - 46.4 °F 77% 29.77 in 10.0 mi SW 8.1 mph - N/A   Mostly Cloudy
4:35 AM 53.6 °F - 46.4 °F 77% 29.79 in 10.0 mi SW 10.4 mph - N/A   Mostly Cloudy
4:55 AM 53.6 °F - 46.4 °F 77% 29.78 in 10.0 mi SW 8.1 mph - N/A   Scattered Clouds
5:15 AM 51.8 °F - 46.4 °F 82% 29.77 in 10.0 mi WSW 5.8 mph - N/A   Scattered Clouds
5:35 AM 51.8 °F - 46.4 °F 82% 29.77 in 10.0 mi WSW 6.9 mph - N/A   Clear
5:55 AM 51.8 °F - 46.4 °F 82% 29.77 in 10.0 mi WSW 8.1 mph - N/A   Clear
6:15 AM 51.8 °F - 46.4 °F 82% 29.77 in 10.0 mi WSW 5.8 mph - N/A   Clear
6:35 AM 50.0 °F - 46.4 °F 87% 29.77 in 10.0 mi WSW 6.9 mph - N/A   Clear
6:55 AM 50.0 °F - 46.4 °F 87% 29.78 in 10.0 mi WSW 6.9 mph - N/A   Clear
7:15 AM 50.0 °F - 46.4 °F 87% 29.79 in 10.0 mi WSW 6.9 mph - N/A   Clear
7:35 AM 50.0 °F - 46.4 °F 87% 29.79 in 10.0 mi WSW 6.9 mph - N/A   Clear
7:55 AM 50.0 °F - 46.4 °F 87% 29.80 in 10.0 mi West 8.1 mph - N/A   Clear
8:15 AM 51.8 °F - 46.4 °F 82% 29.80 in 10.0 mi West 10.4 mph - N/A   Scattered Clouds
8:35 AM 51.8 °F - 46.4 °F 82% 29.80 in 10.0 mi West 11.5 mph 18.4 mph N/A   Clear
8:55 AM 51.8 °F - 44.6 °F 76% 29.81 in 10.0 mi West 12.7 mph 18.4 mph N/A   Clear
9:15 AM 53.6 °F - 44.6 °F 72% 29.81 in 10.0 mi West 13.8 mph 23.0 mph N/A   Clear
9:35 AM 53.6 °F - 42.8 °F 67% 29.82 in 10.0 mi West 15.0 mph 23.0 mph N/A   Clear
9:55 AM 53.6 °F - 42.8 °F 67% 29.82 in 10.0 mi West 17.3 mph 24.2 mph N/A   Clear
10:15 AM 55.4 °F - 41.0 °F 58% 29.81 in 10.0 mi West 17.3 mph 25.3 mph N/A   Clear
10:35 AM 55.4 °F - 41.0 °F 58% 29.82 in 10.0 mi West 16.1 mph 26.5 mph N/A   Scattered Clouds
10:55 AM 57.2 °F - 41.0 °F 55% 29.81 in 10.0 mi West 19.6 mph 31.1 mph N/A   Mostly Cloudy
11:15 AM 55.4 °F - 41.0 °F 58% 29.81 in 10.0 mi West 19.6 mph 27.6 mph N/A   Mostly Cloudy
11:35 AM 57.2 °F - 39.2 °F 51% 29.80 in 10.0 mi West 19.6 mph 25.3 mph N/A   Mostly Cloudy
11:55 AM 57.2 °F - 39.2 °F 51% 29.80 in 10.0 mi West 16.1 mph 24.2 mph N/A   Mostly Cloudy
12:15 PM 59.0 °F - 39.2 °F 48% 29.79 in 10.0 mi WNW 13.8 mph 27.6 mph N/A   Mostly Cloudy
12:35 PM 59.0 °F - 37.4 °F 45% 29.79 in 10.0 mi West 20.7 mph 27.6 mph N/A   Mostly Cloudy
12:55 PM 59.0 °F - 37.4 °F 45% 29.78 in 10.0 mi West 23.0 mph 29.9 mph N/A   Overcast
1:15 PM 55.4 °F - 37.4 °F 51% 29.77 in 10.0 mi West 18.4 mph 26.5 mph N/A   Overcast
1:35 PM 59.0 °F - 37.4 °F 45% 29.77 in 10.0 mi West 19.6 mph 27.6 mph N/A   Overcast
1:55 PM 59.0 °F - 37.4 °F 45% 29.76 in 10.0 mi West 18.4 mph 23.0 mph N/A   Overcast
2:15 PM 57.2 °F - 37.4 °F 48% 29.76 in 10.0 mi WNW 19.6 mph 28.8 mph N/A   Overcast
2:35 PM 57.2 °F - 35.6 °F 44% 29.77 in 10.0 mi West 21.9 mph 34.5 mph N/A   Overcast
2:55 PM 55.4 °F - 37.4 °F 51% 29.78 in 10.0 mi West 13.8 mph 28.8 mph N/A   Overcast
3:15 PM 55.4 °F - 35.6 °F 47% 29.79 in 10.0 mi West 19.6 mph 31.1 mph N/A   Overcast
3:35 PM 53.6 °F - 37.4 °F 54% 29.79 in 10.0 mi West 11.5 mph 25.3 mph N/A   Overcast
3:55 PM 53.6 °F - 37.4 °F 54% 29.80 in 10.0 mi West 18.4 mph 27.6 mph N/A   Overcast
4:15 PM 53.6 °F - 37.4 °F 54% 29.80 in 10.0 mi West 16.1 mph 27.6 mph N/A   Overcast
4:35 PM 53.6 °F - 37.4 °F 54% 29.80 in 10.0 mi West 11.5 mph 19.6 mph N/A   Overcast
4:55 PM 53.6 °F - 37.4 °F 54% 29.81 in 10.0 mi West 12.7 mph 20.7 mph N/A   Overcast
5:15 PM 53.6 °F - 37.4 °F 54% 29.82 in 10.0 mi West 15.0 mph 23.0 mph N/A   Overcast
5:35 PM 51.8 °F - 37.4 °F 58% 29.83 in 10.0 mi West 15.0 mph 20.7 mph N/A   Overcast
5:55 PM 51.8 °F - 37.4 °F 58% 29.84 in 10.0 mi West 9.2 mph 19.6 mph N/A   Overcast
6:15 PM 51.8 °F - 37.4 °F 58% 29.84 in 10.0 mi West 9.2 mph 17.3 mph N/A   Overcast
6:35 PM 51.8 °F - 35.6 °F 54% 29.85 in 10.0 mi West 10.4 mph 18.4 mph N/A   Overcast
6:55 PM 51.8 °F - 35.6 °F 54% 29.85 in 10.0 mi West 8.1 mph 16.1 mph N/A   Overcast
7:15 PM 51.8 °F - 35.6 °F 54% 29.86 in 10.0 mi West 9.2 mph - N/A   Overcast
7:35 PM 51.8 °F - 35.6 °F 54% 29.86 in 10.0 mi West 11.5 mph 20.7 mph N/A   Overcast
7:55 PM 51.8 °F - 35.6 °F 54% 29.87 in 10.0 mi West 10.4 mph 21.9 mph N/A   Overcast
8:15 PM 51.8 °F - 35.6 °F 54% 29.88 in 10.0 mi West 11.5 mph 19.6 mph N/A   Overcast
8:35 PM 51.8 °F - 35.6 °F 54% 29.89 in 10.0 mi West 16.1 mph 21.9 mph N/A   Overcast
8:55 PM 50.0 °F - 33.8 °F 54% 29.89 in 10.0 mi WNW 15.0 mph 28.8 mph N/A   Mostly Cloudy
9:15 PM 48.2 °F - 32.0 °F 54% 29.90 in 10.0 mi West 13.8 mph 26.5 mph N/A   Scattered Clouds
9:35 PM 48.2 °F - 33.8 °F 58% 29.90 in 10.0 mi West 12.7 mph 19.6 mph N/A   Scattered Clouds
9:55 PM 46.4 °F 41.1 °F 33.8 °F 62% 29.90 in 10.0 mi West 11.5 mph 18.4 mph N/A   Scattered Clouds
10:15 PM 46.4 °F 41.1 °F 33.8 °F 62% 29.90 in 10.0 mi West 11.5 mph 16.1 mph N/A   Scattered Clouds
10:35 PM 46.4 °F 41.5 °F 33.8 °F 62% 29.91 in 10.0 mi WNW 10.4 mph 16.1 mph N/A   Scattered Clouds
10:55 PM 44.6 °F 39.2 °F 32.0 °F 61% 29.91 in 10.0 mi WNW 10.4 mph 20.7 mph N/A   Scattered Clouds
11:15 PM 44.6 °F 37.4 °F 32.0 °F 61% 29.92 in 10.0 mi West 16.1 mph 23.0 mph N/A   Clear
11:35 PM 44.6 °F 39.7 °F 32.0 °F 61% 29.91 in 10.0 mi West 9.2 mph 17.3 mph N/A   Clear
11:55 PM 42.8 °F 37.0 °F 32.0 °F 66% 29.92 in 10.0 mi West 10.4 mph 17.3 mph N/A   Clear